Hourly Data Report for October 21, 2016

All times are specified in Local Standard Time (LST). Add 1 hour to adjust for Daylight Saving Time where and when it is observed.

PENTICTON A
BRITISH COLUMBIA

49°27'45.000" N
119°36'08.000" W
344.40 m
1126146
71889
YYF

Download Data

Hourly Data (October 2016)
Hourly Data Report for October 21, 2016
Temp Definition
°C
Dew Point Temp Definition
°C
Rel Hum Definition
%
Wind Dir Definition
10's deg

Wind Spd Definition
km/h
Visibility Definition
km
Stn Press Definition
kPa
Hmdx Definition


Wind Chill Definition


Weather Definition


TIME
00:00 Legend Double Dagger 9.2 6.5 83 19 18 24.1 97.76     LegendNANA
01:00 Legend Double Dagger 7.4 4.5 82 7 5 24.1 97.77     Mainly Clear
02:00 Legend Double Dagger 5.3 4.0 91 2 4 24.1 97.80     LegendNANA
03:00 Legend Double Dagger 4.2 3.0 92 1 8 24.1 97.78     LegendNANA
04:00 Legend Double Dagger 4.8 3.6 92 32 3 24.1 97.75     Mostly Cloudy
05:00 Legend Double Dagger 2.9 2.2 95 2 4 24.1 97.74     LegendNANA
06:00 Legend Double Dagger 4.6 3.7 94 36 9 24.1 97.73     LegendNANA
07:00 Legend Double Dagger 5.5 4.5 93 13 3 24.1 97.72     Cloudy
08:00 Legend Double Dagger 6.2 4.0 86 33 7 24.1 97.72     LegendNANA
09:00 Legend Double Dagger 7.2 4.4 82 1 5 24.1 97.69     LegendNANA
10:00 Legend Double Dagger 7.6 4.9 83 36 7 24.1 97.62     Mostly Cloudy
11:00 Legend Double Dagger 8.1 4.9 80 35 5 24.1 97.56     LegendNANA
12:00 Legend Double Dagger 9.2 5.2 76   0 24.1 97.48     LegendNANA
13:00 Legend Double Dagger 10.6 6.0 73 21 10 24.1 97.40     Mostly Cloudy
14:00 Legend Double Dagger 12.2 6.5 68 17 17 24.1 97.33     LegendNANA
15:00 Legend Double Dagger 12.2 5.9 65 17 17 24.1 97.26     LegendNANA
16:00 Legend Double Dagger 11.7 5.4 65 15 17 24.1 97.24     Mostly Cloudy
17:00 Legend Double Dagger 10.9 5.5 69 18 13 24.1 97.21     LegendNANA
18:00 Legend Double Dagger 10.3 5.7 73 14 7 24.1 97.18     LegendNANA
19:00 Legend Double Dagger 10.0 5.2 72 14 12 24.1 97.18     Mostly Cloudy
20:00 Legend Double Dagger 9.8 5.6 75 14 15 24.1 97.14     LegendNANA
21:00 Legend Double Dagger 9.9 5.1 72 12 15 24.1 97.16     LegendNANA
22:00 Legend Double Dagger 9.8 5.8 76 15 9 24.1 97.17     Mostly Cloudy
23:00 Legend Double Dagger 9.7 5.9 77 20 7 24.1 97.17     LegendNANA

Notes on Data Quality.

Legend

  • E = Estimated
  • M = Missing
  • NA = Not Available
  • ‡ = Partner data that is not subject to review by the National Climate Archives
Date modified: